Weather History for KLAN - June, 2013

Change the Weather History Date:

Monday, June 10, 2013

  Actual Average Record
Temperature  
Mean Temperature 67 °F 66 °F  
Max Temperature 73 °F 77 °F 96 °F (1895)
Min Temperature 61 °F 55 °F 33 °F (1868)
Degree Days  
Heating Degree Days 0 2  
Month to date heating degree days 41 32  
Since 1 June heating degree days 41 32  
Since 1 July heating degree days 6555 6689  
Cooling Degree Days 2 3  
Month to date cooling degree days 14 28  
Year to date cooling degree days 87 69  
Since 1 June cooling degree days 14 28  
Growing Degree Days 17 (Base 50)    
Moisture  
Dew Point 62 °F    
Average Humidity 80    
Maximum Humidity 97    
Minimum Humidity 63    
Precipitation  
Precipitation 1.23 in 0.12 in 2.50 in (1883)
Month to date precipitation 1.41 1.16  
Year to date precipitation 19.41 12.73  
Snow  
Snow 0.00 in 0.00 in 0.00 in ()
Month to date snowfall 0.0 0.0  
Since 1 June snowfall 0.0 0.0  
Since 1 July snowfall 30.2 51.1  
Snow Depth 0.00 in    
Sea Level Pressure  
Sea Level Pressure 29.82 in    
Wind  
Wind Speed 7 mph (East)    
Max Wind Speed 16 mph    
Max Gust Speed 31 mph    
Visibility 6 miles    
Events Rain    
T = Trace of Precipitation, MM = Missing Value Source: NWS Daily Summary

Daily Weather History Graph

Daily Weather History Graph

Search for Another Location

Airport or City:

Trip Planner

Search our weather history database for the weather conditions in past years. The results will help you decide how hot, cold, wet, or windy it might be!

Date:

Astronomy

Jun. 10, 2013 Rise Set
Actual Time 5:59 AM EDT 9:16 PM EDT
Civil Twilight 5:24 AM EDT 9:51 PM EDT
Nautical Twilight 4:39 AM EDT 10:36 PM EDT
Astronomical Twilight 3:44 AM EDT 11:31 PM EDT
Moon 7:49 AM EDT (6/10) 10:39 PM EDT (6/10)
Length of Visible Light 16h 26m
Length of Day
15h 16m
Waxing Crescent, 4% of the Moon is Illuminated
Jun 10
Waxing Crescent
Jun 16
First Quarter
Jun 23
Full
Jun 30
Last Quarter
Jul 8
New

Hourly Weather History & Observations

Time (EDT) Temp. Dew Point Humidity Pressure Visibility Wind Dir Wind Speed Gust Speed Precip Events Conditions
12:53 AM 66.9 °F 53.1 °F 61% 29.93 in 10.0 mi ESE 9.2 mph - N/A   Partly Cloudy
1:53 AM 63.0 °F 57.0 °F 81% 29.93 in 8.0 mi ESE 5.8 mph - 0.01 in Rain Light Rain
2:53 AM 62.1 °F 57.9 °F 86% 29.90 in 7.0 mi East 6.9 mph - 0.04 in Rain Light Rain
3:19 AM 60.8 °F 57.2 °F 88% 29.90 in 6.0 mi East 6.9 mph - 0.02 in Rain Light Rain
3:53 AM 61.0 °F 59.0 °F 93% 29.88 in 2.5 mi East 6.9 mph - 0.08 in Rain Heavy Rain
3:59 AM 60.8 °F 59.0 °F 94% 29.90 in 1.8 mi ESE 5.8 mph - 0.06 in Rain Heavy Rain
4:09 AM 60.8 °F 59.0 °F 94% 29.89 in 1.0 mi ESE 3.5 mph - 0.31 in Rain Heavy Rain
4:32 AM 62.6 °F 60.8 °F 94% 29.88 in 2.0 mi East 5.8 mph - 0.72 in Rain Rain
4:38 AM 60.8 °F 60.8 °F 100% 29.89 in 3.0 mi ENE 9.2 mph - 0.74 in Rain Light Rain
4:51 AM 62.6 °F 60.8 °F 94% 29.89 in 2.5 mi SE 10.4 mph - 0.81 in Rain Rain
4:53 AM 62.1 °F 60.1 °F 93% 29.88 in 3.0 mi SE 9.2 mph - 0.81 in Rain Light Rain
5:53 AM 62.1 °F 59.0 °F 90% 29.86 in 10.0 mi NE 8.1 mph - 0.08 in   Overcast
6:53 AM 62.1 °F 59.0 °F 90% 29.84 in 9.0 mi NE 9.2 mph - 0.04 in Rain Light Rain
7:11 AM 62.6 °F 59.0 °F 88% 29.85 in 10.0 mi ENE 8.1 mph - 0.00 in   Overcast
7:53 AM 62.1 °F 60.1 °F 93% 29.83 in 6.0 mi East 8.1 mph - 0.01 in Rain Light Rain
8:53 AM 63.0 °F 61.0 °F 93% 29.82 in 6.0 mi ESE 8.1 mph - 0.02 in Rain Light Rain
9:01 AM 62.6 °F 60.8 °F 94% 29.83 in 1.8 mi ESE 8.1 mph - 0.03 in Rain Rain
9:13 AM 62.6 °F 60.8 °F 94% 29.83 in 1.2 mi ESE 6.9 mph - 0.10 in Rain Rain
9:20 AM 62.6 °F 62.6 °F 100% 29.83 in 2.0 mi East 9.2 mph - 0.11 in Rain Light Rain
9:36 AM 64.4 °F 62.6 °F 94% 29.83 in 3.0 mi East 6.9 mph - 0.14 in Rain Light Rain
9:53 AM 64.9 °F 63.0 °F 93% 29.82 in 8.0 mi East 6.9 mph - 0.14 in   Overcast
10:53 AM 66.0 °F 63.0 °F 90% 29.80 in 6.0 mi ESE 9.2 mph - N/A   Overcast
11:53 AM 66.9 °F 63.0 °F 87% 29.80 in 4.0 mi SE 5.8 mph - N/A   Overcast
12:44 PM 66.2 °F 62.6 °F 88% 29.80 in 5.0 mi ESE 8.1 mph - N/A   Overcast
12:53 PM 66.9 °F 63.0 °F 87% 29.79 in 5.0 mi ESE 5.8 mph - N/A   Overcast
1:34 PM 68.0 °F 62.6 °F 83% 29.79 in 6.0 mi East 8.1 mph - N/A   Haze
1:53 PM 70.0 °F 64.0 °F 81% 29.77 in 6.0 mi ESE 5.8 mph - N/A   Haze
2:28 PM 69.8 °F 64.4 °F 83% 29.78 in 7.0 mi ESE 6.9 mph - N/A   Overcast
2:53 PM 71.1 °F 63.0 °F 75% 29.77 in 9.0 mi ESE 6.9 mph - N/A   Overcast
3:33 PM 71.6 °F 64.4 °F 78% 29.76 in 9.0 mi SSE 6.9 mph - N/A   Overcast
3:53 PM 71.1 °F 64.0 °F 78% 29.76 in 9.0 mi SSE 4.6 mph - 0.00 in   Overcast
4:08 PM 69.8 °F 64.4 °F 83% 29.76 in 8.0 mi SSE 4.6 mph - 0.00 in Rain Light Rain
4:35 PM 69.8 °F 64.4 °F 83% 29.77 in 10.0 mi WSW 4.6 mph - 0.00 in   Mostly Cloudy
4:53 PM 70.0 °F 64.0 °F 81% 29.76 in 10.0 mi WSW 5.8 mph - 0.00 in   Partly Cloudy
5:53 PM 71.1 °F 63.0 °F 75% 29.75 in 10.0 mi NNW 4.6 mph - N/A   Clear
6:53 PM 73.0 °F 64.0 °F 73% 29.75 in 10.0 mi North - - N/A   Partly Cloudy
7:53 PM 69.1 °F 64.0 °F 84% 29.76 in 6.0 mi North - - N/A   Haze
8:04 PM 69.8 °F 64.4 °F 83% 29.77 in 6.0 mi North - - N/A   Haze
8:53 PM 68.0 °F 64.0 °F 87% 29.78 in 5.0 mi North 11.5 mph - N/A   Overcast
9:10 PM 68.0 °F 64.4 °F 88% 29.79 in 6.0 mi North 5.8 mph - N/A   Overcast
9:34 PM 66.2 °F 62.6 °F 88% 29.79 in 5.0 mi North 6.9 mph - N/A   Overcast
9:53 PM 66.9 °F 63.0 °F 87% 29.79 in 5.0 mi North 4.6 mph - N/A   Overcast
10:53 PM 66.0 °F 62.1 °F 87% 29.81 in 5.0 mi North 5.8 mph - N/A   Overcast
11:05 PM 66.2 °F 62.6 °F 88% 29.81 in 5.0 mi North 3.5 mph - N/A   Overcast
11:53 PM 64.9 °F 62.1 °F 90% 29.81 in 4.0 mi NNW 3.5 mph - N/A   Overcast